Date String (YYYY-MM-DD hh:mm:ss) UTC,Instrument flags,absolute air pressure of the measurement (hPa),sample flow rate (lpm),inlet stack bypass flow (lpm),air temperature of the measurement (°C),ambient temperature measured by the external sensor (°C),aerosol sample conditioner tube jacket temperature (°C),OPC LED temperature (°C),internal box temperature (°C),relative humidity of the measurement (%),span deviation,mass concentration of particles derived from Lorenz-Mie calculation of OPC scattering (μg/m³),mass concentration of particles derived from Lorenz-Mie calculation of OPC scattering (μg/m³),mass concentration of particles derived from Lorenz-Mie calculation of OPC scattering (μg/m³)
DateTimeUTC,F1_M11,P_M11,Q1_M11,Q2_M11,T1_M11,T2_M11,T3_M11,T4_M11,T5_M11,U1_M11,ZSPAN_M11,X0_M11,X2_M11,X1_M11
2023-10-04 17:00:00,SystemResetWarning,0832.0,5.00,000.00,028.8,027.4,000.0,037.2,030.4,16.6,0000.0,0008.94,0002.87,0001.89
2023-10-04 17:01:00,SystemResetWarning,0832.0,5.01,000.00,028.8,027.5,000.0,037.2,030.5,16.5,0000.0,0008.66,0002.80,0001.89
2023-10-04 17:02:00,SystemResetWarning,0832.0,5.00,000.00,028.8,027.5,000.0,037.3,030.5,16.4,0000.0,0008.42,0002.76,0001.90
2023-10-04 17:03:00,SystemResetWarning,0832.0,5.00,000.00,028.9,027.6,000.0,037.3,030.5,16.5,0000.0,0008.27,0002.71,0001.91
2023-10-04 17:04:00,SystemResetWarning,0832.0,5.00,000.00,028.9,027.6,000.0,037.3,030.6,16.7,0000.0,0007.75,0002.72,0001.92
2023-10-04 17:05:00,SystemResetWarning,0832.0,5.00,000.00,028.9,027.7,000.0,037.3,030.6,16.7,0000.0,0007.92,0002.73,0001.92
2023-10-04 17:06:00,SystemResetWarning,0832.0,5.00,000.00,028.9,027.8,000.0,037.3,030.7,16.7,0000.0,0008.14,0002.77,0001.92
2023-10-04 17:07:00,SystemResetWarning,0832.0,5.01,000.00,029.0,027.8,000.0,037.3,030.7,16.6,0000.0,0008.16,0002.76,0001.91
2023-10-04 17:08:00,SystemResetWarning,0832.0,5.00,000.00,029.0,027.9,000.0,037.3,030.7,16.5,0000.0,0008.13,0002.74,0001.90
2023-10-04 17:09:00,SystemResetWarning,0832.0,5.00,000.00,029.0,027.9,000.0,037.4,030.7,16.9,0000.0,0008.40,0002.75,0001.91
2023-10-04 17:10:00,SystemResetWarning,0832.0,5.00,000.00,029.1,028.0,000.0,037.4,030.8,16.9,0000.0,0008.75,0002.78,0001.91
2023-10-04 17:11:00,SystemResetWarning,0832.0,5.00,000.00,029.1,028.0,000.0,037.4,030.8,16.7,0000.0,0009.68,0002.78,0001.93
2023-10-04 17:12:00,SystemResetWarning,0832.0,4.98,000.00,029.1,027.0,000.0,037.4,030.8,16.4,0000.0,0010.34,0002.82,0001.93
2023-10-04 17:13:00,SystemResetWarning,0831.9,5.00,000.00,029.0,025.0,000.0,037.3,030.5,16.4,0000.0,0011.39,0002.86,0001.93
2023-10-04 17:14:00,SystemResetWarning,0831.9,5.01,000.00,028.9,024.5,000.0,037.3,030.3,16.5,0000.0,0011.64,0002.95,0001.96
2023-10-04 17:15:00,SystemResetWarning,0831.9,5.01,000.00,028.8,024.7,000.0,037.2,030.1,16.8,0000.0,0011.67,0002.94,0001.99
2023-10-04 17:16:00,SystemResetWarning,0831.9,4.99,000.00,028.7,025.1,000.0,037.2,030.1,16.9,0000.0,0011.40,0003.00,0002.03
2023-10-04 17:17:00,SystemResetWarning,0831.9,5.00,000.00,028.6,025.5,000.0,037.2,030.1,17.0,0000.0,0011.47,0003.06,0002.06
2023-10-04 17:18:00,SystemResetWarning,0831.9,5.01,000.00,028.6,025.8,000.0,037.2,030.1,17.0,0000.0,0011.45,0003.11,0002.10
2023-10-04 17:19:00,SystemResetWarning,0831.9,5.00,000.00,028.6,026.2,000.0,037.2,030.2,17.0,0000.0,0011.50,0003.15,0002.15
2023-10-04 17:20:00,SystemResetWarning,0832.0,5.00,000.00,028.6,026.5,000.0,037.2,030.2,17.0,0000.0,0011.29,0003.16,0002.18
2023-10-04 17:21:00,SystemResetWarning,0831.9,5.00,000.00,028.6,026.7,000.0,037.2,030.2,17.0,0000.0,0011.33,0003.18,0002.19
2023-10-04 17:22:00,SystemResetWarning,0831.9,5.00,000.00,028.6,026.9,000.0,037.2,030.3,16.9,0000.0,0011.28,0003.19,0002.21
2023-10-04 17:23:00,SystemResetWarning,0831.9,5.00,000.00,028.7,027.1,000.0,037.2,030.3,16.7,0000.0,0010.84,0003.18,0002.25
2023-10-04 17:24:00,SystemResetWarning,0831.9,4.99,000.00,028.7,027.2,000.0,037.2,030.4,16.7,0000.0,0009.97,0003.20,0002.27
2023-10-04 17:25:00,SystemResetWarning,0831.9,4.99,000.00,028.7,027.3,000.0,037.2,030.4,16.8,0000.0,0009.69,0003.15,0002.27
2023-10-04 17:26:00,SystemResetWarning,0832.0,4.99,000.00,028.7,027.4,000.0,037.2,030.4,16.6,0000.0,0009.57,0003.16,0002.27
2023-10-04 17:27:00,SystemResetWarning,0832.3,5.01,000.00,028.8,027.5,000.0,037.2,030.5,16.7,0000.0,0009.03,0003.15,0002.26
2023-10-04 17:28:00,SystemResetWarning,0832.3,5.00,000.00,028.8,027.6,000.0,037.2,030.5,16.8,0000.0,0008.72,0003.10,0002.26
2023-10-04 17:29:00,SystemResetWarning,0832.3,5.01,000.00,028.8,027.7,000.0,037.2,030.6,16.7,0000.0,0008.69,0003.06,0002.27
2023-10-04 17:30:00,SystemResetWarning,0832.0,5.00,000.00,028.9,027.7,000.0,037.3,030.6,16.6,0000.0,0009.26,0003.09,0002.27
2023-10-04 17:31:00,SystemResetWarning,0832.0,5.00,000.00,028.9,027.8,000.0,037.3,030.6,16.3,0000.0,0010.23,0003.09,0002.26
2023-10-04 17:32:00,SystemResetWarning,0832.3,5.00,000.00,028.9,027.9,000.0,037.3,030.7,16.2,0000.0,0010.32,0003.10,0002.29
2023-10-04 17:33:00,SystemResetWarning,0832.3,5.00,000.00,029.0,027.9,000.0,037.3,030.7,16.2,0000.0,0009.07,0003.07,0002.30
2023-10-04 17:34:00,SystemResetWarning,0831.9,5.00,000.00,029.0,028.0,000.0,037.3,030.8,16.0,0000.0,0009.17,0003.10,0002.31
2023-10-04 17:35:00,SystemResetWarning,0831.7,5.00,000.00,029.0,028.0,000.0,037.4,030.8,16.0,0000.0,0010.01,0003.14,0002.35
2023-10-04 17:36:00,SystemResetWarning,0831.7,4.98,000.00,029.0,027.0,000.0,037.3,030.8,16.2,0000.0,0011.18,0003.21,0002.38
2023-10-04 17:37:00,SystemResetWarning,0831.7,5.00,000.00,029.0,025.1,000.0,037.3,030.5,16.3,0000.0,0011.28,0003.25,0002.37
2023-10-04 17:38:00,SystemResetWarning,0831.7,5.00,000.00,028.9,024.6,000.0,037.2,030.3,16.5,0000.0,0011.20,0003.26,0002.38
2023-10-04 17:39:00,SystemResetWarning,0831.6,5.01,000.00,028.8,024.9,000.0,037.2,030.2,16.6,0000.0,0011.31,0003.29,0002.41
2023-10-04 17:40:00,SystemResetWarning,0831.6,5.00,000.00,028.7,025.2,000.0,037.2,030.1,16.6,0000.0,0011.39,0003.32,0002.44
2023-10-04 17:41:00,SystemResetWarning,0831.6,5.00,000.00,028.7,025.6,000.0,037.2,030.1,16.6,0000.0,0010.98,0003.33,0002.47
2023-10-04 17:42:00,SystemResetWarning,0831.6,5.00,000.00,028.6,026.0,000.0,037.2,030.2,16.7,0000.0,0010.17,0003.38,0002.51
2023-10-04 17:43:00,SystemResetWarning,0831.5,4.99,000.00,028.6,026.3,000.0,037.2,030.2,16.7,0000.0,0009.55,0003.38,0002.54
2023-10-04 17:44:00,SystemResetWarning,0831.5,5.00,000.00,028.6,026.6,000.0,037.2,030.3,16.7,0000.0,0009.43,0003.43,0002.56
2023-10-04 17:45:00,SystemResetWarning,0831.6,5.00,000.00,028.6,026.8,000.0,037.2,030.3,16.7,0000.0,0009.23,0003.44,0002.58
2023-10-04 17:46:00,SystemResetWarning,0831.5,5.00,000.00,028.7,027.0,000.0,037.2,030.4,16.7,0000.0,0008.64,0003.42,0002.56
2023-10-04 17:47:00,SystemResetWarning,0831.6,5.01,000.00,028.7,027.2,000.0,037.2,030.4,16.5,0000.0,0008.31,0003.46,0002.57
2023-10-04 17:48:00,SystemResetWarning,0831.5,5.01,000.00,028.7,027.3,000.0,037.2,030.5,16.4,0000.0,0009.18,0003.46,0002.60
2023-10-04 17:49:00,SystemResetWarning,0831.5,5.00,000.00,028.7,027.5,000.0,037.2,030.5,16.3,0000.0,0009.49,0003.48,0002.64
2023-10-04 17:50:00,SystemResetWarning,0831.5,5.00,000.00,028.8,027.6,000.0,037.2,030.5,16.2,0000.0,0010.19,0003.51,0002.66
2023-10-04 17:51:00,SystemResetWarning,0831.5,5.00,000.00,028.8,027.7,000.0,037.2,030.6,16.2,0000.0,0010.25,0003.55,0002.68
2023-10-04 17:52:00,SystemResetWarning,0831.5,5.00,000.00,028.8,027.7,000.0,037.3,030.6,16.2,0000.0,0010.20,0003.56,0002.67
2023-10-04 17:53:00,SystemResetWarning,0831.5,5.00,000.00,028.9,027.8,000.0,037.3,030.7,16.0,0000.0,0010.56,0003.59,0002.67
2023-10-04 17:54:00,SystemResetWarning,0831.5,5.00,000.00,028.9,027.9,000.0,037.3,030.7,16.0,0000.0,0011.56,0003.64,0002.69
2023-10-04 17:55:00,SystemResetWarning,0831.5,5.00,000.00,029.0,028.0,000.0,037.3,030.7,15.9,0000.0,0012.39,0003.64,0002.71
2023-10-04 17:56:00,SystemResetWarning,0831.5,4.99,000.00,029.0,027.4,000.0,037.3,030.8,16.1,0000.0,0012.56,0003.64,0002.70
2023-10-04 17:57:00,SystemResetWarning,0831.4,4.99,000.00,028.9,025.5,000.0,037.3,030.5,16.2,0000.0,0012.21,0003.65,0002.72
2023-10-04 17:58:00,SystemResetWarning,0831.5,5.02,000.00,028.8,024.6,000.0,037.2,030.4,16.3,0000.0,0011.55,0003.61,0002.73
2023-10-04 17:59:00,SystemResetWarning,0831.4,5.00,000.00,028.8,024.7,000.0,037.2,030.2,16.6,0000.0,0010.69,0003.62,0002.73
